Location: Kiramata
(1.4000°N, 32.3500°E)
Time: 08:30:20
(UTC+00:00)

Daily predictions for brighter satellites

Satellite Brightness Start Highest point End
(mag) Time Altitude Azimuth Time Altitude Azimuth Time Altitude Azimuth
ARIANE 5 R/B 4.4 15:53:09 10° W 15:57:51 83° N 16:21:33 10° E
Cosmos 2341 Rocket 4.3 16:11:57 10° S 16:18:21 79° W 16:24:43 10° N
USA 234 3.9 16:13:56 10° ESE 16:19:40 33° NE 16:25:21 10° N
Hubble Space Telescope 2.1 16:17:27 10° NNW 16:20:45 23° NNE 16:24:04 10° E
Cosmos 1758 Rocket 4.2 16:19:01 10° SSW 16:23:20 60° W 16:27:35 10° N
SL-8 Rocket 4.1 16:21:49 10° S 16:28:09 86° E 16:34:28 10° N
Nadezhda 3 Rocket 4.0 16:21:57 10° N 16:28:15 76° E 16:34:37 10° S
CZ-2D R/B 4.1 16:30:11 10° SE 16:33:25 27° ENE 16:36:39 10° NNE
Cosmos 1328 3.8 16:39:37 10° S 16:43:38 85° W 16:47:37 10° N
ARIANE 5 DEB (SYLDA) 4.3 16:41:23 10° SW 16:43:39 24° SSE 16:48:16 10° ESE
Iridium 96 3.6 16:45:02 10° N 16:47:30 60° E 16:50:09 10° S
Fermi 4.1 16:46:52 10° SW 16:50:53 54° SSE 16:53:31 20° E
SL-08 R/B 4.4 16:45:08 10° S 16:51:14 67° E 16:57:22 10° N
Cosmos 1461 4.5 16:48:11 10° NNE 16:51:18 18° ENE 16:52:10 17° E
Cosmos 1939 Rocket 2.8 16:49:03 10° SSE 16:52:50 55° E 16:56:35 10° N
Cosmos 2084 Rocket 3.5 16:50:10 10° NNW 16:54:26 53° ENE 16:58:41 10° SE
Cosmos 2218 Rocket 4.5 16:48:42 10° SSW 16:54:51 64° W 17:01:03 10° N
ATLAS 3B CENTAUR R/B 1.5 16:55:05 10° WNW 16:57:41 59° SSW 17:02:49 10° SE
CSL-04 Rocket 3.6 16:53:44 10° SSE 16:59:06 79° ENE 17:04:31 10° N
Cosmos 1821 Rocket 4.5 16:53:57 10° SSE 16:59:49 39° E 17:05:16 12° NNE
Cosmos 2333 Rocket 2.1 16:54:36 10° N 17:00:12 68° ENE 17:05:47 10° SSE
Cosmos 1340 Rocket 3.7 17:00:27 10° NNW 17:04:19 51° W 17:08:15 10° S
CZ-2C R/B 3.6 17:01:38 11° NNE 17:05:50 66° ESE 17:10:19 10° S
Meteor 2-10 Rocket 3.9 17:05:34 10° NNE 17:10:15 37° E 17:14:53 10° SSE
USA 215 3.2 17:06:05 18° NE 17:11:04 74° SE 17:17:36 10° SSW
GPS 2-14 Rocket1 2.9 17:09:38 10° WSW 17:13:36 62° SSE 17:14:56 38° E
Cosmos 1048 Rocket 4.3 17:09:51 10° NNW 17:14:55 68° WSW 17:20:01 10° S
CZ-4 R/B 3.6 17:12:36 10° SSW 17:15:53 26° W 17:19:12 10° NW
Ariane H10 3.7 17:14:57 10° WSW 17:17:12 21° S 17:17:39 20° SSE
GPS 2-05 Rocket1 2.4 17:15:02 10° WSW 17:17:19 62° W 17:17:19 62° W
BLOCK DM-SL R/B 3.4 17:12:27 10° W 17:18:13 75° S 17:21:07 27° E
NOSS 3-2 (C) 4.4 17:16:56 10° SSE 17:21:10 23° ESE 17:21:10 23° ESE
YAOGAN 1 4.3 17:19:36 10° SSW 17:23:30 33° WSW 17:27:24 10° NW
Ariane Rocket 2.9 17:20:26 10° SSE 17:25:23 57° ENE 17:30:06 11° N
ASC 2 Rocket 3.5 17:24:41 10° SW 17:28:31 40° SSE 17:29:00 38° SE
Cosmos 2056 Rocket 4.2 17:25:29 10° SSE 17:29:36 34° ESE 17:29:36 34° ESE
OAO 3 Rocket 4.5 17:26:16 10° W 17:30:19 29° NW 17:31:49 24° N
HJ-1C 3.5 17:27:14 10° S 17:30:35 73° WSW 17:31:16 52° NW
Cosmos 1339 Rocket 4.4 17:25:19 10° N 17:31:25 88° W 17:37:40 10° S
Cosmos 1455 2.1 17:31:05 51° N 17:31:58 84° W 17:35:43 10° S
Delta 142 4.2 17:33:01 10° WNW 17:37:08 47° SSW 17:38:31 32° SSE
GPS 2-04 Rocket1 2.9 17:33:24 10° NW 17:36:38 57° NW 17:36:38 57° NW
ATLAS 3B R/B 4.3 17:33:30 10° SSE 17:36:50 17° SE 17:36:50 17° SE
Cosmos 2263 Rocket 2.0 17:37:42 10° S 17:43:16 77° ESE 17:44:11 61° NE
NOSS 3-2 (A) 3.0 17:39:16 10° SSW 17:44:46 82° ESE 17:45:34 65° NE
BLOCK DM-SL R/B 4.2 17:40:27 10° W 17:45:33 82° S 17:51:48 33° E
Cosmos 1934 Rocket 3.8 17:42:08 10° S 17:48:19 66° E 17:49:00 61° ENE
Palapa B4 Rocket 3.7 17:45:56 10° W 17:49:31 43° SSW 17:49:41 43° S
Cosmos 1535 Rocket 4.3 17:43:57 10° S 17:50:04 69° E 17:50:46 63° NE
CZ-4C R/B 3.1 17:43:00 10° N 17:51:06 55° ENE 17:59:12 10° SE
Cosmos 1076 Rocket 3.9 17:47:26 10° S 17:50:50 56° SSW 17:50:50 56° SSW
IRS-1A Rocket 4.3 17:45:49 10° S 17:51:45 83° WSW 17:57:35 10° NNW
COSMOS 2428 4.4 17:50:18 10° NW 17:55:21 33° WSW 18:00:24 10° SSW
ARIANE 5 R/B 3.0 17:56:41 10° W 17:58:59 66° W 17:58:59 66° W
Cosmos 2219 Rocket 4.2 17:56:37 10° NW 18:01:15 26° WSW 18:05:52 10° SSW
ATLAS CENTAUR Rocket 2.3 17:57:47 10° WSW 18:01:02 51° W 18:01:02 51° W
Hubble Space Telescope 2.3 17:57:53 10° WNW 18:00:29 34° W 18:00:29 34° W
Ariane 3 Deb 4.5 17:17:09 10° W 18:02:48 73° SSW 18:05:28 46° ESE
CENTAUR R/B 3.4 17:59:49 10° S 18:02:29 28° SSE 18:02:29 28° SSE
Ariane H10+ 2.8 18:02:00 10° WSW 18:06:41 79° S 18:08:26 59° E
MOS 1 4.4 18:04:46 10° S 18:10:27 71° WSW 18:10:55 67° WNW
CZ-2C R/B 3.0 18:13:28 63° SW 18:13:28 63° SW 18:18:11 10° SSW
USA 238 4.5 18:12:44 10° SW 18:18:55 42° WNW 18:20:22 37° NW
Intelsat 5-3 Rocket 4.4 18:14:51 10° SW 18:19:23 31° SSW 18:19:23 31° SSW
Centaur Rocket 4.5 18:18:58 10° WSW 18:23:58 86° NNW 18:24:12 84° NNE
Cosmos 2237 Rocket 4.4 18:51:41 19° SSW 18:51:41 19° SSW 18:53:38 10° SSW
